Content
SEND FEEDBACK

Daily
Averages
Monthly
Summary
Canada

VANCOUVER - UNIVERSITY, BRITISH COLUMBIA


Home > North America > Canada > British Columbia
Elevation: 249 feet     Latitude: 49 15N     Longitude: 123 15W

WEATHER
 
SELECT A DAY
Number of Records: 199,917;   Date Range: 1/1/95 - 12/27/14
 
SHARE

PRINT THIS DATA

[ ← Previous Day ]
WEATHER ALMANAC - MAY 10, 2013
[ Next Day → ]
[ °C ]   °F
Weather ElementAverageHighLow
Temperature59.5 °F67 °F (5:00 pm)48.2 °F (6:00 am)
Dewpoint52.7 °F57.2 °F (11:00 am)46.4 °F (6:00 am)
Humidity77.9 %94 % (5:00 am)54 % (5:00 pm)
Barometer30.18 in30.23 in (11:00 am)30.12 in (7:00 pm)
Wind Speed4.9 mph9.2 mph (10:00 am)
Weather ElementAverage
Visibility29.3 mi
Wind DirectionSSW (204.1 °)

Weather ElementTotal
Precipitation---
Heating Degree Days7.4 (Base 65)
Growing Degree Days7.6 (Base 50)
Averaged from 27 records on May 10, 2013
WEATHER CONDITIONS BREAKOUT
WIND DIRECTION BREAKOUT
WEATHER BY HOUR - MAY 10, 2013
[ °C ]   °F
Local TimeTemperatureDewpointHumidityBarometerVisibilityWind DirectionWind SpeedGust SpeedPrecipitationEventsConditions
1:00 AM53.6 °F50.0 °F88 %30.17 in30.0 miSE (140°)4.6 mphClear
2:00 AM53.6 °F50.0 °F88 %30.19 in30.0 miSSE (160°)4.6 mphClear
3:00 AM51.8 °F48.2 °F88 %30.19 in30.0 miEast (90°)4.6 mphClear
4:00 AM51.8 °F48.2 °F88 %30.19 in30.0 miESE (120°)4.6 mphClear
5:00 AM51.0 °F48.0 °F84 %30.19 in28.0 miSE (130°)2.3 mph
5:00 AM50.0 °F48.2 °F94 %30.19 in30.0 miSE (130°)3.5 mphClear
6:00 AM48.2 °F46.4 °F93 %30.20 in30.0 miCalmClear
7:00 AM55.4 °F50.0 °F82 %30.21 in20.0 miESE (110°)5.8 mphClear
8:00 AM57.2 °F50.0 °F77 %30.21 in30.0 miESE (110°)6.9 mphClear
9:00 AM60.8 °F50.0 °F68 %30.22 in30.0 miSE (140°)5.8 mphClear
10:00 AM66.2 °F51.8 °F60 %30.21 in30.0 miSW (230°)9.2 mphMostly Cloudy
11:00 AM64.0 °F56.0 °F70 %30.23 in28.0 miWSW (250°)8.1 mphOvercast
11:00 AM64.4 °F57.2 °F77 %30.21 in30.0 miWest (260°)9.2 mphOvercast
12:00 PM64.4 °F57.2 °F77 %30.21 in30.0 miWest (270°)6.9 mphMostly Cloudy
1:00 PM66.2 °F57.2 °F73 %30.19 in30.0 miWest (270°)8.1 mphPartly Cloudy
2:00 PM66.2 °F57.2 °F73 %30.18 in30.0 miWest (260°)5.8 mphOvercast
3:00 PM64.4 °F55.4 °F73 %30.17 in30.0 miWest (260°)6.9 mphOvercast
4:00 PM64.4 °F53.6 °F68 %30.16 in30.0 miWNW (290°)3.5 mphOvercast
5:00 PM67.0 °F54.0 °F54 %30.15 in28.0 miWNW (290°)4.6 mphOvercast
5:00 PM66.2 °F53.6 °F64 %30.15 in30.0 miWNW (290°)4.6 mphOvercast
6:00 PM64.4 °F53.6 °F68 %30.14 in30.0 miNW (320°)3.5 mphOvercast
7:00 PM64.4 °F55.4 °F73 %30.12 in30.0 miWSW (240°)3.5 mphOvercast
8:00 PM60.8 °F55.4 °F82 %30.12 in30.0 miWNW (290°)3.5 mphOvercast
9:00 PM59.0 °F55.4 °F88 %30.13 in30.0 miNW (310°)4.6 mphOvercast
10:00 PM57.2 °F53.6 °F88 %30.13 in30.0 miSouth (190°)3.5 mphOvercast
11:00 PM58.0 °F53.0 °F77 %30.14 in28.0 miSouth (180°)2.3 mphScattered Clouds
11:00 PM57.2 °F53.6 °F88 %30.14 in30.0 miSouth (180°)2.3 mphMostly Cloudy
Hourly data recorded from CYVR, located miles away from Vancouver - University, British Columbia







STORIES FROM OUR PARTNERS